Vorticity
10 14 14 14 8 4 3 4 7 7 9 8 7 6 4 5 5 8 7 1 3 7 5 2 6 5 4 6 7 7 6 7 8 7 7 6 5 6 7 6 6 7 7 5 6 7 6 7 8 8 8 8 6 6 7 8 9 9 10 10 10 9 9 9 8 7 5 5 6 6 5 5 5 5 6 7 6 5 5 4 4 4 4 3 3 4 5 5 5 5 5 5 5 5 6 5 4
8 10 8 6 1 0 5 5 2 7 11 7 9 7 3 6 5 8 8 3 4 6 5 4 6 4 5 6 6 5 4 8 9 7 6 5 5 6 8 7 7 7 6 4 6 6 4 5 7 9 8 6 5 5 7 7 7 8 9 10 11 11 11 10 9 8 6 5 6 6 5 5 6 6 6 6 6 5 4 4 4 5 5 5 5 5 5 5 5 7 7 6 6 5 7 6 5
9 6 -1 -0 1 4 8 5 2 11 10 3 11 9 5 9 10 9 3 2 5 6 5 5 7 6 5 4 5 7 6 6 7 6 5 5 5 7 8 8 7 6 5 4 6 6 5 6 7 9 8 7 6 6 6 6 6 5 6 8 10 11 11 10 9 8 6 6 6 5 5 5 5 5 5 5 5 5 4 4 4 5 6 7 6 5 6 7 8 8 8 7 7 6 6 6 5
9 4 -0 1 4 8 8 5 7 15 14 8 11 7 4 9 10 3 -1 5 7 5 6 5 6 7 7 5 5 8 8 5 6 7 5 5 6 7 7 6 7 5 6 6 5 6 6 8 7 8 8 7 6 6 6 5 5 4 5 6 7 9 10 10 8 8 6 6 7 6 5 5 5 5 5 5 5 4 4 4 5 5 6 7 7 7 7 8 9 8 10 9 7 8 5 6 6
8 6 4 -1 5 9 6 8 10 13 12 11 10 6 5 8 6 0 3 8 5 4 6 5 4 7 9 9 8 7 7 6 6 6 5 5 5 6 7 5 7 7 7 6 5 6 6 7 7 7 6 7 6 6 6 6 5 5 6 6 5 7 9 10 8 7 6 5 6 6 5 5 5 5 4 5 4 4 4 5 6 6 6 7 8 10 9 8 8 8 11 11 9 8 6 6 7
8 10 4 6 19 11 5 8 9 10 6 8 9 8 7 6 5 3 9 7 2 4 5 6 6 4 5 9 15 11 7 6 5 4 5 5 4 6 7 6 6 7 6 6 6 6 6 6 6 5 5 5 5 5 6 6 5 5 6 6 5 5 7 9 9 7 5 5 5 5 5 5 5 5 5 4 3 4 6 6 6 7 7 8 10 10 10 9 8 8 11 11 10 8 6 7 7
8 5 2 22 28 7 6 9 6 8 5 7 8 8 5 4 8 5 8 5 0 5 6 9 7 4 4 7 13 14 10 6 6 6 6 6 4 5 6 7 6 6 5 5 5 5 5 5 6 5 4 4 4 6 7 6 3 3 7 8 6 4 5 7 8 7 5 4 4 4 6 6 5 6 5 2 2 5 6 7 7 8 7 9 11 9 9 8 7 10 11 10 11 9 7 7 7
7 -4 13 35 21 7 8 6 5 7 5 6 6 6 2 3 8 0 3 4 2 7 10 12 4 3 6 6 8 12 12 7 8 7 7 7 5 6 6 7 6 5 5 5 5 5 5 6 7 7 7 7 7 8 9 9 5 4 7 9 8 5 6 6 7 6 5 5 4 5 6 6 6 6 4 2 3 5 6 7 8 8 7 10 12 10 9 8 8 12 12 10 10 9 7 7 7
2 -1 41 39 7 10 6 3 6 5 7 6 4 6 4 7 7 -0 3 4 7 9 9 9 3 9 9 7 11 10 12 8 8 7 6 8 5 6 6 6 5 5 4 5 6 6 7 7 8 9 10 11 10 10 11 13 12 9 7 9 10 8 7 6 7 6 6 5 6 7 6 7 7 6 4 3 4 6 7 8 8 8 9 12 12 11 10 10 11 12 12 11 10 9 8 7 6
1 5 49 27 -3 10 3 6 8 5 8 6 5 5 6 7 4 2 3 1 9 11 8 5 4 17 11 8 13 7 11 9 6 6 5 7 6 7 5 5 4 5 5 6 8 8 8 8 9 11 11 10 10 11 11 13 14 12 9 9 11 9 8 7 7 7 7 7 8 8 7 7 7 5 4 4 6 7 8 8 9 9 12 15 14 12 12 12 12 11 10 10 9 9 9 8 8
3 5 41 18 0 13 2 6 6 8 8 5 8 2 3 3 1 5 3 2 12 12 8 7 6 14 7 9 15 7 10 8 5 5 4 7 7 7 5 4 5 5 6 7 9 8 8 8 9 10 10 10 9 9 10 10 10 12 12 13 13 11 9 8 7 8 7 7 8 9 8 7 6 5 4 5 7 8 9 10 11 12 15 17 15 13 14 13 11 10 11 11 10 10 9 10 10
2 14 50 21 4 11 3 8 4 9 6 5 8 -0 4 3 3 6 1 4 13 10 6 9 9 9 7 11 13 7 9 7 6 5 5 8 7 7 4 4 5 4 6 8 9 8 8 7 7 8 8 9 8 9 9 9 9 12 14 14 14 12 9 7 7 8 7 6 8 9 8 8 6 5 5 7 9 9 9 10 12 13 14 14 12 12 13 11 11 10 11 11 10 11 10 10 10
1 17 40 9 5 10 3 12 6 7 5 6 6 1 7 4 5 5 0 7 13 10 3 8 8 6 7 9 9 8 9 7 7 6 6 8 6 5 4 5 5 4 5 6 8 8 9 8 8 7 7 8 8 9 9 10 11 11 13 14 13 11 9 8 7 8 8 7 8 8 7 8 7 6 7 8 9 9 9 10 11 11 11 12 12 13 12 11 11 10 9 9 9 10 10 10 10
1 16 26 6 8 8 4 11 6 5 6 7 6 2 4 4 6 4 2 8 13 10 5 7 8 9 9 6 7 8 9 7 7 6 7 6 4 5 4 5 5 5 7 6 7 8 8 8 8 7 7 8 9 10 9 9 10 10 12 13 12 10 10 9 8 9 8 8 9 8 7 8 6 7 8 8 9 8 8 8 8 8 9 9 10 10 10 10 9 9 9 9 9 9 9 9 9
2 13 20 18 11 4 7 8 6 7 6 9 9 3 2 4 5 4 3 5 9 8 6 6 5 11 12 7 6 8 9 7 7 7 7 5 4 4 4 5 6 7 8 7 8 7 7 8 8 7 6 7 9 10 9 7 7 9 11 11 9 10 12 10 9 10 9 9 9 8 7 7 6 7 7 8 9 7 7 6 7 7 7 8 8 7 7 8 8 9 10 10 10 9 9 9 8
4 7 8 31 24 3 6 8 9 8 4 8 9 4 3 4 2 4 4 2 5 5 8 10 7 11 15 12 6 7 9 7 8 7 6 5 4 4 4 5 5 6 6 6 6 6 7 7 7 7 6 6 7 9 9 6 6 9 11 9 8 10 11 10 10 9 9 10 9 7 6 6 6 7 7 8 9 9 8 6 6 6 6 7 6 6 6 6 6 7 9 10 10 9 9 9 10
5 6 13 46 32 3 5 9 13 7 1 7 6 5 7 5 1 4 3 2 5 5 11 13 12 13 12 13 9 8 9 7 8 7 6 5 5 4 5 5 6 6 5 5 5 5 6 7 7 7 7 7 6 7 9 8 7 9 10 9 9 9 9 9 10 8 10 11 9 7 7 7 6 6 7 8 8 9 8 5 5 5 5 5 5 5 5 4 4 5 6 8 9 10 9 9 11
5 7 15 32 16 4 9 7 14 8 0 7 6 5 8 2 -1 5 2 4 7 8 13 12 13 14 12 15 12 10 9 8 8 6 6 5 5 5 5 6 7 7 5 5 5 5 5 6 7 7 7 7 6 6 7 8 9 9 9 10 9 8 8 9 9 9 10 10 7 6 7 7 6 7 8 9 8 9 8 5 4 4 4 4 4 4 4 4 4 4 4 6 8 9 9 9 10
5 10 11 16 10 9 10 4 10 9 2 5 4 4 7 1 1 4 2 4 4 7 14 11 12 11 12 18 14 11 9 9 9 5 5 5 4 5 6 7 7 7 5 6 6 5 6 6 6 6 7 6 7 7 7 8 10 11 9 9 10 8 8 8 9 9 8 7 7 7 7 6 6 7 7 8 8 9 10 7 4 4 4 3 3 2 2 3 3 4 5 6 7 6 7 8 9
5 12 10 12 12 8 9 7 5 7 6 4 3 6 6 6 6 1 3 7 2 8 12 7 11 9 9 14 11 10 10 10 8 5 4 4 4 4 6 7 7 6 5 7 6 5 6 6 5 5 6 7 8 8 8 8 10 11 9 9 10 8 8 9 9 8 7 8 8 7 6 6 6 6 6 7 8 9 10 8 6 5 5 4 3 2 1 2 2 3 4 6 6 6 6 6 9
7 11 9 7 9 7 7 7 5 5 8 4 4 10 6 5 8 2 4 7 4 11 11 7 9 7 7 7 7 8 9 11 8 5 5 4 4 5 5 6 7 7 6 8 6 5 6 7 6 6 6 7 8 8 8 9 10 10 9 9 9 9 9 10 10 7 7 8 8 7 6 7 7 7 7 7 8 7 7 7 7 6 7 6 5 4 3 3 4 4 4 5 6 6 6 5 6
8 8 9 4 6 14 11 6 7 5 5 5 2 10 10 2 1 5 8 4 5 11 11 12 9 5 7 6 6 6 7 11 9 6 4 3 5 6 5 6 7 6 6 8 7 6 6 7 6 6 6 8 9 8 8 10 9 7 7 8 8 9 10 11 11 8 7 6 6 6 6 7 6 7 8 8 7 6 6 7 7 7 8 8 7 7 6 6 6 6 5 4 5 6 6 6 5
6 4 8 3 1 18 18 4 5 7 5 4 1 8 14 3 -6 2 11 5 4 10 9 11 11 7 7 6 6 6 8 10 8 5 3 3 4 6 6 7 8 6 5 7 7 7 6 6 6 6 5 7 9 8 7 7 7 6 7 9 9 10 10 11 11 9 8 6 5 5 6 6 6 8 9 9 8 7 8 10 11 11 10 10 9 10 11 10 10 10 8 7 6 5 5 6 6
2 0 6 7 1 7 12 7 11 13 8 5 4 5 8 7 1 -1 8 6 2 9 10 9 11 10 7 7 6 7 10 9 7 5 3 4 3 4 6 8 9 7 6 6 6 7 6 5 5 6 5 6 8 7 6 7 8 8 9 10 10 10 10 10 10 10 9 6 5 6 6 6 7 8 9 9 9 10 10 11 12 11 11 10 9 11 12 12 11 12 13 11 9 7 5 5 7
-0 -0 1 7 6 2 4 10 14 12 10 10 5 3 4 9 7 2 6 5 2 9 12 10 9 10 9 7 7 8 11 9 7 5 3 3 3 4 5 8 10 8 6 5 6 7 6 6 5 6 5 5 6 6 6 7 8 9 11 12 11 10 10 10 10 9 10 8 7 7 7 7 7 7 7 9 11 11 11 10 9 10 10 10 10 10 11 10 9 10 12 13 13 11 7 6 9
1 2 -1 0 7 8 4 6 9 8 13 12 3 3 6 6 5 7 8 1 2 8 10 12 9 9 11 7 6 8 10 10 7 5 3 3 3 4 5 7 9 8 6 5 6 7 6 7 6 6 6 6 5 5 6 7 8 9 11 12 11 11 10 11 10 9 10 9 7 8 8 8 8 8 8 10 12 11 11 10 10 10 10 11 11 11 10 10 9 9 9 10 13 13 10 8 10
5 4 2 1 4 9 7 3 2 7 16 13 3 2 6 7 5 7 8 -0 3 8 6 12 12 8 10 8 7 6 9 10 7 5 4 3 4 3 5 7 8 8 7 5 6 6 6 7 7 7 7 7 5 4 6 7 9 9 10 11 10 10 9 9 9 9 9 8 6 8 10 9 9 9 9 11 11 11 11 11 12 13 12 12 14 14 12 11 10 9 9 9 10 11 10 9 9
5 5 6 5 2 5 7 2 -0 6 14 13 6 4 6 8 6 3 3 2 5 8 5 10 13 9 9 9 6 5 7 8 8 7 5 4 4 4 5 6 7 9 7 6 7 6 6 7 7 8 8 6 3 3 6 9 10 9 9 11 9 9 9 8 8 8 8 8 9 9 9 8 9 8 8 9 9 10 10 11 14 15 13 12 14 15 14 13 12 11 10 10 11 10 8 8 9
4 6 6 4 3 4 4 2 5 8 11 16 11 7 8 5 6 5 3 4 4 8 7 7 12 11 9 9 6 5 5 5 8 7 5 5 4 4 6 6 6 8 7 5 6 7 7 8 8 7 8 7 4 5 7 10 10 8 10 11 9 8 8 8 8 8 7 8 11 10 7 6 8 8 8 8 8 8 10 11 12 13 13 12 12 13 14 14 14 13 11 11 11 11 9 9 9
4 5 4 3 5 4 2 -1 5 8 10 25 19 7 9 4 6 9 5 6 3 7 9 5 11 12 8 10 7 5 5 4 6 7 5 4 4 4 5 6 6 8 8 5 3 5 7 9 8 8 9 7 5 6 8 11 11 9 11 11 9 8 7 6 7 9 9 9 10 9 7 7 7 8 7 7 7 7 7 8 8 9 10 11 11 12 13 14 15 14 12 11 12 13 11 10 10
4 4 5 6 5 3 4 -1 4 8 6 20 18 5 7 3 7 10 5 7 3 5 9 4 9 12 8 10 8 6 5 3 5 6 5 4 4 5 5 6 7 8 9 5 2 3 6 9 9 8 8 6 4 5 7 10 12 11 11 12 11 8 7 6 7 10 11 9 9 8 7 7 7 7 7 6 6 6 6 6 6 6 7 9 10 10 11 12 13 12 11 11 14 15 13 12 10
5 4 6 9 4 4 7 -0 3 7 -2 5 12 10 9 4 11 12 1 3 4 3 9 6 6 10 9 8 9 9 6 4 5 4 4 4 3 5 7 6 7 9 9 6 4 3 5 7 8 8 7 5 4 5 7 8 10 12 12 13 11 9 8 6 7 10 10 8 7 7 8 8 8 7 6 6 5 5 5 6 6 6 6 5 6 7 9 10 11 12 12 11 12 14 12 11 10
5 4 7 9 6 7 8 1 2 6 0 1 5 8 7 5 14 14 0 3 6 3 7 9 5 7 9 6 9 11 8 5 4 3 3 4 3 4 6 7 8 9 9 8 6 5 5 6 6 7 6 5 4 4 6 6 8 11 13 14 11 8 7 5 7 9 9 8 7 8 9 9 9 7 6 5 5 5 5 6 6 6 7 6 6 7 8 9 10 11 12 11 9 10 10 9 9
7 9 7 7 7 7 8 5 2 4 6 5 6 9 7 10 16 10 -0 2 8 5 5 10 8 7 9 6 6 9 9 6 4 4 4 4 4 4 5 7 9 9 8 9 8 7 6 6 6 6 6 4 4 4 4 5 7 9 11 14 13 9 6 4 5 8 9 9 7 8 8 8 8 8 6 6 5 6 6 6 6 6 7 8 8 8 8 8 8 10 12 12 10 9 10 9 10
5 10 7 6 8 6 7 8 2 -1 2 2 6 10 10 15 13 3 2 2 6 7 4 5 7 9 10 8 8 7 8 8 6 5 4 4 4 3 5 7 10 10 8 8 8 8 5 6 6 6 6 5 5 6 5 5 7 8 9 12 15 12 7 4 4 6 8 9 8 8 7 7 8 8 7 7 7 6 6 7 7 7 7 8 8 7 8 8 7 9 12 14 13 11 11 10 11
2 6 5 5 5 3 3 6 6 3 5 5 4 3 4 8 3 1 7 6 6 6 3 4 6 9 9 8 10 8 6 9 10 7 4 5 4 4 5 6 9 9 8 8 8 8 5 5 6 6 7 7 7 7 5 6 7 8 8 9 13 14 11 6 3 4 7 8 9 8 7 7 7 7 7 7 7 7 7 7 7 7 7 8 8 7 7 8 8 8 10 14 15 13 11 10 11
3 4 4 5 5 6 5 4 5 8 11 9 4 2 1 0 1 9 13 7 8 7 2 4 4 8 9 6 9 9 7 7 10 10 4 4 5 4 5 6 7 8 8 8 7 8 7 5 6 6 7 7 8 7 5 6 5 6 8 8 10 13 13 10 5 3 5 7 8 8 7 6 6 6 6 7 7 7 7 7 8 8 8 8 9 9 8 9 9 8 9 13 14 13 11 9 9
5 3 2 5 4 6 7 2 1 7 10 4 2 3 2 1 3 15 17 4 8 11 3 4 4 6 8 6 7 9 11 9 9 12 7 5 6 4 5 6 6 7 7 8 7 8 7 6 6 6 7 7 7 6 5 6 5 5 8 8 8 10 12 12 9 5 5 6 7 8 8 7 7 7 7 7 7 7 6 7 8 9 9 9 9 9 9 10 10 9 9 10 12 12 11 11 10
6 2 -1 3 4 5 6 4 1 1 2 1 6 6 5 10 6 11 18 4 4 7 -2 2 6 4 6 7 8 7 11 12 8 11 10 6 5 4 6 6 5 7 6 7 8 7 7 8 6 5 7 7 7 6 5 6 5 5 7 9 8 9 10 11 10 7 5 5 7 9 8 7 8 7 7 6 5 6 6 7 7 8 9 9 9 9 9 9 9 9 8 9 10 10 10 11 10
6 4 -2 -0 4 5 7 9 6 1 -6 -7 7 12 7 12 7 9 16 5 3 2 -4 4 6 5 6 6 11 8 7 12 8 9 11 8 6 4 5 6 5 6 6 6 7 6 7 8 7 6 6 7 7 6 6 6 6 5 6 7 8 10 10 10 10 9 6 4 6 9 9 8 7 7 7 5 4 4 4 6 7 8 8 9 9 9 9 9 8 8 9 8 7 7 7 7 6
7 5 0 0 3 4 7 10 9 8 1 -10 1 14 10 9 9 11 14 9 5 -2 -0 10 6 10 12 3 11 12 4 9 8 6 8 8 7 5 5 6 5 5 6 6 7 7 6 7 8 6 5 6 7 6 6 7 6 5 6 6 7 9 11 10 10 9 8 5 5 7 8 7 7 7 7 7 6 4 4 4 6 7 8 8 9 8 8 8 8 8 8 7 6 6 5 5 4
6 5 3 3 3 4 6 8 7 8 6 -0 3 8 5 10 14 11 10 11 11 0 2 10 2 10 15 0 6 15 7 8 9 6 5 6 7 7 6 6 7 7 6 6 6 7 7 6 8 7 5 5 6 7 6 5 6 5 5 6 7 8 9 11 10 9 8 6 5 5 6 7 7 7 7 7 6 5 4 4 5 6 7 7 8 8 8 8 7 7 6 6 7 6 6 5 5
4 6 5 2 4 5 4 7 12 12 6 4 9 4 -1 5 9 14 14 9 13 10 7 10 5 7 12 2 3 11 8 8 10 8 7 5 6 7 7 6 7 7 6 7 6 6 7 6 7 8 7 5 4 6 6 5 6 5 5 6 7 7 7 9 10 9 9 7 6 5 5 6 6 6 6 7 6 5 4 4 5 5 6 6 7 8 8 7 6 6 6 6 6 6 5 5 5
5 10 8 3 3 3 4 5 7 10 7 4 10 8 4 3 -4 6 18 16 18 15 5 11 16 14 11 3 3 8 7 8 11 9 7 7 5 5 6 6 7 8 6 6 6 6 7 7 7 8 8 7 5 5 5 5 6 6 7 6 6 6 6 7 8 9 11 9 7 6 6 5 5 6 6 6 6 6 5 5 5 5 6 6 7 7 8 7 6 5 6 6 5 4 4 4 4
8 10 8 4 4 3 7 10 4 5 7 4 5 6 9 11 2 -3 -1 3 9 -0 -10 3 20 24 14 4 5 6 4 7 10 9 6 6 7 5 6 6 6 6 6 6 6 6 8 8 7 7 7 8 7 6 5 6 6 6 8 7 7 7 6 7 7 8 10 11 9 8 6 6 5 5 6 6 6 6 6 6 6 6 5 6 7 7 7 6 6 5 6 5 5 5 4 4 4
8 6 7 5 6 4 5 9 7 5 6 3 2 6 8 12 14 9 -0 -1 3 -3 -8 -2 7 15 12 9 12 6 2 6 8 10 9 6 8 8 5 5 6 5 5 5 6 6 7 8 8 8 7 7 8 8 5 5 5 6 7 8 8 8 6 6 6 7 8 10 10 9 8 7 6 5 5 5 6 6 6 6 6 6 5 5 6 6 6 6 6 5 5 5 5 6 6 5 5
6 5 11 8 4 3 1 3 3 0 1 2 2 5 8 9 11 13 11 12 14 9 8 6 3 4 5 13 17 5 2 6 4 9 12 7 10 13 8 5 4 4 4 4 5 5 5 7 8 9 9 7 7 9 7 6 5 6 7 7 8 7 6 6 6 6 6 7 9 10 9 8 6 6 5 5 5 6 6 6 6 6 5 5 5 5 5 5 5 5 6 6 6 7 6 7 7
6 5 7 8 7 5 2 -1 -3 -3 2 8 6 3 5 7 9 9 5 9 13 10 10 12 9 4 2 12 15 6 4 6 4 7 11 8 8 12 13 9 5 3 3 3 3 4 4 5 6 8 10 9 7 8 8 6 5 6 6 6 7 8 7 5 6 6 6 6 7 8 9 10 9 7 7 6 5 5 6 6 6 6 5 5 4 4 5 5 5 5 5 6 6 7 7 7 7
5 6 2 5 6 5 4 2 2 3 4 10 10 8 7 4 5 6 1 -0 3 5 6 7 7 5 6 11 11 6 6 6 5 5 8 9 7 8 11 11 9 6 3 3 2 2 3 3 4 6 8 10 9 8 8 7 6 6 6 5 6 8 7 5 6 7 6 6 6 6 7 8 9 10 9 8 7 6 6 6 6 6 6 6 5 5 5 5 5 5 5 5 6 6 6 7 7
3 7 3 1 2 4 5 7 11 8 1 6 9 7 8 6 3 1 -1 -0 2 4 7 7 4 2 4 6 4 2 4 6 7 6 8 9 5 6 9 8 9 8 5 4 2 2 3 3 3 4 5 8 9 9 8 7 7 6 6 5 5 7 8 6 7 8 6 5 6 6 7 7 7 9 9 9 9 8 8 7 7 7 7 7 7 7 6 6 6 6 6 6 5 6 6 7 7
5 8 5 0 -1 2 2 1 9 15 12 12 10 5 4 2 3 6 3 4 6 6 8 10 10 8 5 4 3 3 5 6 4 4 7 9 5 6 8 6 7 8 8 7 4 3 2 2 3 3 3 5 7 8 9 8 7 7 7 6 5 6 7 7 9 10 8 6 5 5 6 7 7 7 7 7 8 8 8 8 8 8 8 8 8 8 8 7 7 7 6 7 6 6 7 7 7
6 8 7 4 1 1 4 -3 -6 7 19 12 -2 -2 8 5 2 10 11 9 7 6 9 11 12 16 20 15 7 6 8 7 6 6 8 9 6 6 8 7 7 8 10 10 8 5 3 3 3 2 3 5 5 7 7 8 8 6 7 7 5 5 5 6 8 9 9 7 6 5 5 6 7 7 7 6 7 7 7 7 7 7 7 7 8 8 8 8 8 8 7 7 7 7 7 7 7
7 8 6 3 -0 -1 6 7 -3 -7 2 11 6 -0 8 10 5 7 11 9 6 4 5 6 2 4 15 15 6 6 8 6 7 9 9 8 6 6 7 6 7 8 11 11 11 9 5 4 3 3 3 4 5 6 6 8 9 8 8 7 7 6 5 5 6 7 8 7 7 6 5 5 5 6 7 7 6 7 7 7 7 7 6 7 6 6 7 7 7 8 7 7 8 7 7 7 7
9 8 7 5 2 -3 -5 1 10 1 -12 3 21 16 7 6 4 3 2 3 8 9 6 7 4 -1 4 4 -0 7 11 6 7 8 5 7 8 8 7 5 6 7 7 9 10 12 10 7 5 4 4 4 5 6 5 5 7 8 8 9 8 7 6 5 6 5 6 7 8 8 7 5 4 4 5 6 7 6 6 7 7 7 6 7 6 6 6 6 6 7 7 7 8 7 7 7 7
13 7 8 9 7 3 -5 -8 5 14 2 -7 -3 4 7 3 -2 2 6 4 4 5 4 8 8 5 7 4 -0 9 13 7 7 9 8 9 8 8 8 7 6 5 6 7 8 11 13 12 9 5 4 5 5 6 6 5 5 6 7 9 9 8 7 6 6 5 5 5 7 8 9 7 5 5 4 5 6 6 5 5 6 6 7 7 7 6 6 6 6 6 6 7 7 8 8 8 8
15 8 6 7 8 6 2 -1 2 14 19 5 -11 -10 -0 -2 -8 -2 11 13 4 -3 -2 5 8 8 13 11 7 14 19 12 6 4 9 10 3 2 7 8 7 4 3 6 9 10 11 13 14 11 7 6 5 6 6 4 4 5 6 7 8 8 8 7 7 6 5 4 5 7 8 8 8 7 6 5 4 5 4 4 5 6 6 7 7 6 6 6 6 6 6 6 6 7 8 8 9
16 13 8 6 11 10 3 1 5 7 10 12 6 -0 -2 -6 -12 -11 -2 7 5 -3 -2 5 6 5 8 11 12 13 14 14 8 2 7 10 4 2 9 10 8 3 -0 3 10 11 8 11 15 14 12 11 9 7 7 5 4 4 5 7 7 8 8 7 7 7 6 5 4 5 7 8 8 8 7 7 6 6 5 4 5 6 5 6 7 7 7 6 6 6 6 6 6 6 7 8 9
16 15 12 4 5 12 9 2 3 5 2 5 8 9 10 5 -2 -5 -4 -2 -5 -9 1 11 14 13 8 8 14 11 6 7 6 5 9 9 6 6 9 10 9 6 2 4 10 9 6 8 12 10 10 12 12 9 7 7 6 4 4 5 6 8 9 9 7 7 7 7 5 4 5 6 8 8 8 8 7 7 7 5 5 6 5 6 6 6 7 7 6 6 6 6 6 5 5 6 7
Height
5883 5883 5883 5882 5883 5883 5883 5883 5883 5884 5884 5885 5885 5886 5886 5886 5887 5887 5888 5890 5890 5890 5889 5890 5890 5890 5890 5891 5891 5892 5892 5893 5893 5893 5893 5894 5895 5895 5895 5896 5896 5896 5895 5895 5895 5896 5898 5901 5901 5899 5897 5895 5895 5895 5896 5897 5897 5897 5897 5897 5898 5899 5900 5901 5901 5901 5901 5902 5902 5903 5903 5904 5904 5905 5905 5905 5904 5904 5905 5905 5906 5906 5906 5906 5906 5907 5907 5907 5907 5907 5907 5907 5907 5907 5907 5908 5908
5884 5884 5884 5883 5884 5883 5884 5884 5883 5884 5885 5885 5886 5886 5887 5887 5887 5887 5889 5890 5890 5890 5890 5890 5890 5891 5891 5891 5892 5892 5893 5893 5894 5894 5894 5894 5895 5896 5896 5897 5897 5897 5897 5896 5896 5897 5898 5900 5901 5900 5898 5897 5897 5897 5897 5897 5898 5898 5898 5898 5898 5899 5900 5901 5902 5903 5903 5903 5903 5903 5904 5904 5905 5905 5905 5905 5905 5905 5906 5906 5906 5907 5907 5907 5907 5907 5908 5908 5907 5907 5907 5907 5907 5907 5908 5908 5908
5885 5884 5884 5884 5884 5884 5884 5884 5884 5885 5886 5886 5886 5887 5887 5888 5888 5888 5889 5891 5891 5890 5891 5891 5891 5891 5892 5892 5892 5893 5893 5894 5895 5895 5894 5895 5895 5896 5897 5898 5898 5898 5898 5897 5896 5897 5898 5899 5900 5901 5900 5899 5899 5898 5898 5897 5898 5898 5898 5899 5899 5899 5900 5901 5902 5903 5904 5904 5904 5904 5904 5904 5905 5905 5905 5906 5906 5906 5906 5907 5907 5908 5908 5908 5907 5908 5909 5908 5908 5908 5907 5907 5907 5908 5908 5908 5909
5885 5885 5884 5884 5884 5885 5885 5885 5885 5886 5886 5887 5887 5887 5887 5888 5889 5889 5890 5891 5891 5892 5892 5892 5892 5892 5893 5893 5893 5894 5894 5894 5896 5896 5895 5895 5896 5897 5898 5899 5899 5899 5899 5898 5897 5897 5897 5898 5900 5900 5901 5901 5900 5899 5898 5898 5897 5898 5898 5899 5900 5900 5900 5901 5902 5903 5904 5905 5905 5905 5905 5905 5905 5905 5906 5906 5906 5907 5907 5908 5908 5908 5908 5908 5908 5909 5909 5908 5908 5907 5908 5908 5908 5908 5909 5909 5910
5885 5885 5884 5884 5884 5885 5886 5885 5885 5886 5887 5887 5888 5888 5888 5889 5889 5890 5891 5891 5892 5893 5893 5892 5892 5893 5893 5894 5894 5895 5895 5895 5896 5897 5896 5896 5897 5897 5898 5899 5900 5900 5900 5899 5898 5898 5898 5898 5899 5900 5900 5901 5901 5900 5899 5898 5898 5898 5898 5899 5900 5901 5901 5902 5902 5903 5904 5905 5906 5906 5906 5906 5906 5906 5906 5907 5907 5907 5908 5908 5909 5909 5908 5908 5908 5909 5908 5907 5907 5907 5907 5908 5908 5909 5909 5910 5911
5885 5885 5884 5883 5883 5884 5886 5886 5886 5887 5887 5888 5889 5889 5889 5890 5890 5891 5891 5892 5892 5893 5893 5892 5892 5892 5894 5895 5895 5896 5896 5895 5896 5898 5897 5896 5898 5898 5899 5900 5900 5901 5900 5900 5899 5899 5899 5899 5899 5899 5900 5900 5900 5900 5900 5899 5899 5898 5898 5899 5900 5901 5902 5902 5903 5904 5904 5905 5906 5906 5906 5907 5907 5907 5907 5907 5908 5908 5908 5909 5909 5909 5908 5908 5909 5909 5908 5908 5908 5907 5907 5908 5909 5909 5910 5911 5911
5885 5885 5884 5883 5883 5884 5885 5886 5886 5886 5887 5888 5889 5890 5890 5890 5891 5892 5892 5892 5892 5893 5893 5893 5893 5893 5894 5896 5896 5897 5897 5897 5897 5899 5898 5896 5898 5899 5900 5901 5901 5901 5901 5901 5900 5900 5900 5900 5900 5899 5900 5900 5900 5900 5900 5900 5900 5899 5899 5900 5900 5901 5902 5903 5904 5904 5905 5906 5906 5907 5907 5907 5908 5908 5908 5908 5908 5908 5909 5909 5909 5909 5908 5908 5909 5909 5908 5908 5908 5908 5908 5909 5909 5910 5911 5911 5912
5886 5885 5883 5883 5883 5884 5885 5887 5887 5886 5888 5889 5889 5890 5890 5890 5891 5893 5893 5893 5893 5893 5893 5894 5895 5895 5895 5897 5897 5898 5899 5898 5898 5899 5899 5897 5898 5900 5900 5901 5902 5902 5902 5902 5902 5901 5901 5901 5901 5900 5900 5900 5900 5900 5901 5901 5901 5901 5900 5900 5901 5901 5902 5903 5904 5905 5906 5906 5907 5907 5908 5908 5908 5909 5909 5909 5909 5909 5910 5910 5910 5909 5908 5908 5910 5910 5908 5908 5908 5909 5909 5909 5910 5911 5912 5912 5913
5886 5885 5882 5882 5883 5884 5885 5887 5888 5887 5889 5889 5889 5890 5890 5890 5891 5892 5894 5894 5894 5894 5894 5895 5896 5896 5896 5897 5898 5898 5899 5900 5900 5900 5900 5898 5899 5901 5901 5902 5902 5903 5903 5903 5903 5903 5902 5902 5901 5901 5900 5900 5900 5901 5901 5902 5902 5901 5901 5901 5902 5902 5903 5904 5905 5906 5907 5907 5907 5908 5908 5909 5909 5909 5910 5910 5910 5910 5910 5910 5910 5909 5908 5910 5911 5910 5908 5908 5909 5910 5910 5911 5911 5912 5912 5913 5914
5887 5886 5883 5883 5884 5885 5885 5886 5888 5888 5889 5890 5890 5890 5891 5891 5892 5893 5894 5894 5894 5894 5894 5895 5896 5896 5896 5897 5898 5898 5900 5901 5901 5901 5900 5900 5901 5902 5902 5903 5904 5904 5904 5904 5904 5904 5903 5903 5902 5902 5901 5901 5901 5901 5902 5902 5902 5902 5901 5902 5902 5903 5904 5905 5906 5906 5907 5908 5908 5909 5909 5909 5910 5911 5911 5911 5911 5911 5911 5911 5911 5909 5909 5910 5912 5911 5910 5910 5910 5911 5911 5912 5912 5913 5913 5914 5915
5887 5886 5884 5884 5884 5885 5885 5886 5888 5889 5890 5890 5891 5891 5892 5893 5893 5894 5894 5895 5895 5895 5896 5896 5896 5897 5896 5897 5899 5899 5900 5902 5902 5901 5901 5902 5902 5903 5903 5904 5905 5905 5906 5906 5905 5905 5905 5904 5903 5903 5902 5902 5902 5902 5902 5902 5902 5901 5901 5902 5903 5904 5905 5905 5906 5907 5908 5908 5909 5909 5909 5910 5911 5912 5912 5912 5912 5912 5912 5911 5911 5910 5910 5911 5912 5912 5911 5911 5911 5912 5913 5913 5913 5914 5915 5915 5916
5886 5884 5883 5884 5885 5885 5885 5887 5889 5890 5891 5892 5892 5892 5893 5894 5895 5895 5895 5896 5897 5896 5896 5896 5897 5897 5897 5898 5899 5900 5902 5903 5903 5902 5902 5903 5904 5904 5904 5905 5906 5907 5907 5907 5906 5906 5906 5905 5904 5904 5903 5903 5902 5903 5903 5903 5902 5902 5902 5903 5904 5904 5905 5906 5907 5908 5908 5909 5909 5910 5910 5911 5912 5912 5913 5913 5913 5913 5912 5912 5912 5911 5911 5912 5913 5913 5912 5912 5913 5913 5914 5914 5914 5915 5916 5916 5917
5886 5885 5884 5884 5885 5886 5887 5888 5889 5890 5891 5893 5894 5894 5894 5895 5895 5896 5897 5898 5898 5897 5896 5896 5897 5897 5897 5899 5900 5901 5903 5904 5904 5903 5903 5904 5904 5905 5905 5906 5907 5908 5908 5907 5907 5907 5906 5906 5905 5904 5904 5903 5903 5903 5903 5903 5903 5903 5903 5904 5905 5905 5906 5907 5908 5909 5909 5910 5910 5910 5911 5912 5912 5913 5914 5914 5914 5914 5913 5913 5913 5913 5913 5913 5914 5914 5914 5914 5915 5915 5915 5915 5916 5916 5917 5917 5918
5887 5886 5886 5885 5886 5887 5888 5889 5889 5889 5891 5893 5894 5895 5895 5896 5896 5896 5898 5899 5898 5897 5896 5896 5897 5897 5898 5899 5901 5902 5904 5905 5905 5904 5904 5905 5906 5906 5907 5907 5908 5908 5908 5908 5908 5907 5907 5906 5906 5905 5905 5904 5904 5904 5904 5904 5904 5904 5904 5905 5905 5906 5907 5908 5909 5909 5910 5910 5910 5911 5911 5912 5913 5914 5915 5915 5915 5914 5914 5914 5913 5914 5914 5914 5915 5916 5916 5916 5916 5916 5917 5917 5917 5918 5918 5918 5919
5888 5887 5887 5887 5887 5887 5888 5889 5889 5890 5892 5893 5893 5894 5895 5896 5897 5897 5898 5899 5898 5897 5896 5897 5898 5898 5898 5899 5900 5902 5905 5905 5905 5905 5905 5906 5907 5907 5908 5908 5909 5909 5909 5908 5908 5908 5908 5907 5907 5906 5905 5905 5905 5905 5905 5905 5905 5905 5906 5907 5907 5907 5907 5909 5909 5910 5911 5911 5911 5912 5913 5913 5914 5915 5915 5915 5915 5915 5915 5915 5915 5915 5915 5916 5916 5917 5918 5918 5918 5918 5918 5919 5919 5919 5920 5920 5921
5889 5889 5888 5887 5887 5888 5889 5890 5891 5892 5893 5893 5893 5894 5895 5896 5897 5897 5898 5898 5898 5897 5896 5897 5899 5899 5900 5900 5901 5902 5905 5906 5906 5906 5906 5907 5908 5908 5909 5909 5909 5909 5909 5909 5909 5908 5908 5908 5908 5907 5906 5906 5905 5905 5905 5906 5906 5907 5907 5908 5908 5908 5908 5909 5909 5910 5911 5912 5913 5914 5914 5915 5915 5915 5915 5915 5915 5916 5916 5916 5916 5916 5917 5917 5918 5919 5919 5919 5919 5920 5920 5920 5921 5921 5922 5922 5922
5890 5890 5889 5887 5887 5889 5890 5890 5892 5893 5894 5894 5894 5894 5895 5897 5898 5897 5898 5899 5898 5897 5898 5898 5899 5900 5901 5901 5901 5903 5905 5906 5906 5907 5907 5908 5908 5909 5910 5910 5910 5910 5909 5909 5909 5909 5909 5909 5908 5908 5907 5907 5906 5906 5906 5906 5907 5907 5908 5909 5909 5909 5908 5909 5910 5911 5912 5914 5915 5915 5916 5916 5916 5916 5916 5916 5916 5917 5917 5918 5918 5918 5919 5919 5920 5920 5920 5920 5921 5921 5922 5922 5922 5923 5924 5923 5924
5891 5891 5889 5888 5889 5890 5890 5892 5893 5893 5894 5894 5895 5895 5896 5897 5898 5898 5899 5899 5898 5898 5899 5899 5900 5901 5902 5902 5902 5903 5905 5906 5907 5908 5908 5908 5909 5910 5910 5910 5910 5910 5910 5910 5910 5910 5910 5910 5909 5909 5908 5908 5908 5908 5908 5908 5908 5908 5909 5909 5909 5909 5909 5909 5911 5912 5913 5915 5916 5916 5916 5916 5916 5917 5917 5917 5917 5918 5918 5919 5920 5920 5920 5921 5921 5921 5922 5922 5922 5923 5923 5923 5924 5924 5925 5925 5926
5892 5892 5890 5890 5891 5891 5892 5893 5893 5894 5894 5895 5895 5896 5897 5898 5899 5900 5901 5900 5899 5899 5900 5900 5901 5903 5903 5903 5903 5904 5905 5906 5907 5908 5908 5909 5909 5910 5911 5911 5911 5911 5911 5911 5911 5911 5911 5910 5910 5909 5909 5909 5909 5909 5909 5909 5909 5909 5909 5910 5910 5910 5910 5911 5912 5913 5915 5916 5916 5917 5917 5917 5917 5918 5918 5918 5919 5919 5919 5920 5920 5921 5921 5922 5922 5923 5923 5923 5923 5924 5924 5924 5925 5926 5926 5927 5927
5892 5892 5891 5891 5892 5893 5893 5894 5894 5895 5896 5896 5896 5898 5900 5900 5900 5902 5902 5901 5901 5900 5901 5901 5902 5904 5905 5904 5904 5905 5906 5907 5908 5909 5909 5910 5910 5911 5912 5912 5912 5912 5912 5912 5912 5912 5911 5911 5911 5911 5911 5911 5911 5910 5910 5909 5909 5910 5910 5911 5910 5911 5911 5912 5914 5915 5916 5916 5917 5917 5918 5918 5918 5919 5919 5920 5920 5920 5921 5921 5921 5922 5923 5923 5923 5924 5924 5924 5925 5925 5926 5926 5926 5927 5928 5928 5929
5893 5892 5892 5892 5892 5893 5894 5894 5894 5895 5896 5897 5898 5900 5901 5902 5902 5903 5903 5903 5903 5901 5902 5903 5903 5904 5905 5905 5905 5906 5907 5908 5909 5910 5910 5910 5911 5912 5913 5913 5913 5913 5913 5913 5913 5913 5912 5912 5912 5912 5912 5912 5912 5911 5911 5910 5910 5911 5911 5911 5912 5912 5913 5914 5915 5916 5916 5917 5917 5918 5919 5919 5920 5920 5920 5921 5921 5922 5922 5922 5923 5923 5924 5924 5924 5924 5925 5925 5926 5926 5927 5927 5927 5928 5929 5929 5930
5892 5892 5892 5892 5893 5893 5893 5893 5894 5894 5896 5898 5900 5900 5900 5901 5903 5903 5904 5904 5903 5903 5903 5904 5904 5904 5905 5906 5906 5907 5908 5909 5910 5910 5911 5911 5912 5912 5913 5914 5914 5913 5913 5913 5913 5913 5913 5913 5913 5913 5913 5913 5912 5912 5912 5912 5912 5912 5912 5912 5913 5913 5914 5915 5915 5916 5917 5917 5918 5919 5920 5920 5921 5921 5921 5921 5922 5923 5923 5923 5924 5924 5924 5925 5925 5925 5925 5926 5926 5927 5928 5928 5928 5929 5930 5930 5931
5892 5892 5892 5892 5892 5892 5892 5892 5893 5894 5896 5899 5900 5900 5899 5901 5903 5903 5904 5905 5905 5904 5904 5904 5905 5904 5905 5906 5907 5908 5909 5910 5910 5911 5911 5912 5912 5913 5914 5914 5914 5914 5914 5914 5914 5915 5915 5914 5914 5914 5914 5914 5914 5913 5913 5913 5913 5913 5913 5914 5914 5914 5915 5915 5916 5917 5918 5918 5919 5920 5921 5921 5922 5922 5922 5922 5923 5924 5924 5924 5924 5924 5925 5925 5925 5925 5926 5926 5927 5927 5928 5929 5929 5929 5930 5931 5932
5892 5892 5892 5892 5892 5893 5892 5892 5893 5894 5896 5898 5899 5900 5900 5900 5902 5903 5904 5905 5905 5905 5905 5905 5906 5905 5905 5906 5908 5909 5910 5910 5911 5912 5913 5913 5914 5914 5915 5915 5915 5915 5915 5915 5915 5915 5915 5915 5915 5915 5915 5915 5915 5915 5915 5914 5914 5915 5915 5915 5915 5915 5916 5916 5917 5918 5919 5920 5920 5921 5922 5922 5922 5922 5922 5923 5923 5924 5925 5925 5925 5925 5925 5925 5925 5926 5926 5927 5927 5928 5929 5929 5930 5930 5931 5932 5933
5892 5892 5892 5891 5892 5894 5893 5892 5893 5895 5896 5896 5897 5899 5900 5900 5901 5903 5904 5905 5905 5905 5906 5906 5907 5907 5906 5907 5908 5910 5911 5911 5912 5913 5914 5914 5915 5915 5915 5916 5916 5916 5916 5916 5916 5916 5916 5916 5916 5916 5916 5916 5916 5916 5916 5916 5916 5916 5916 5916 5916 5916 5917 5917 5918 5919 5920 5921 5921 5922 5923 5923 5923 5923 5923 5924 5924 5925 5925 5925 5925 5925 5925 5925 5926 5926 5927 5928 5928 5929 5929 5930 5930 5931 5931 5933 5934
5892 5892 5892 5891 5893 5894 5894 5893 5893 5895 5895 5894 5896 5897 5899 5899 5900 5902 5904 5905 5906 5906 5907 5907 5907 5907 5907 5908 5909 5910 5912 5912 5913 5913 5915 5915 5915 5916 5916 5917 5917 5916 5916 5916 5917 5917 5917 5918 5918 5918 5918 5918 5918 5918 5917 5917 5917 5917 5917 5917 5917 5918 5918 5919 5919 5920 5921 5922 5923 5923 5924 5924 5924 5924 5924 5925 5925 5925 5925 5925 5925 5926 5926 5926 5926 5927 5927 5928 5928 5929 5930 5930 5931 5932 5932 5933 5934
5892 5891 5891 5892 5893 5894 5894 5894 5896 5897 5896 5894 5896 5897 5899 5901 5900 5902 5904 5906 5906 5907 5907 5907 5907 5907 5908 5909 5909 5911 5912 5913 5913 5914 5915 5916 5916 5916 5917 5917 5917 5917 5917 5917 5918 5918 5919 5919 5919 5920 5919 5919 5919 5919 5919 5918 5918 5918 5918 5918 5918 5919 5920 5920 5921 5922 5922 5923 5924 5924 5925 5925 5925 5925 5926 5926 5926 5926 5926 5926 5926 5926 5926 5926 5927 5927 5928 5928 5929 5930 5930 5931 5932 5933 5933 5934 5935
5891 5890 5891 5893 5894 5894 5893 5893 5896 5897 5896 5895 5896 5897 5899 5902 5902 5902 5903 5905 5907 5907 5908 5908 5908 5908 5908 5909 5910 5911 5913 5913 5914 5915 5915 5916 5916 5916 5917 5918 5918 5918 5918 5919 5919 5919 5920 5920 5921 5921 5921 5921 5921 5921 5920 5919 5919 5919 5919 5919 5919 5920 5921 5922 5922 5923 5924 5924 5925 5925 5926 5926 5927 5927 5927 5927 5927 5927 5927 5927 5927 5927 5927 5927 5928 5928 5929 5929 5930 5930 5931 5932 5933 5934 5934 5935 5936
5890 5888 5890 5892 5893 5893 5891 5892 5894 5896 5896 5896 5897 5897 5898 5901 5903 5903 5903 5905 5907 5908 5908 5908 5908 5908 5908 5909 5910 5911 5912 5913 5914 5914 5915 5915 5916 5917 5918 5919 5919 5919 5920 5920 5920 5920 5921 5922 5922 5923 5922 5922 5922 5922 5922 5921 5920 5920 5920 5921 5921 5922 5922 5923 5924 5924 5925 5925 5926 5927 5927 5927 5928 5928 5928 5929 5929 5929 5929 5929 5928 5928 5928 5928 5929 5929 5930 5930 5931 5932 5932 5933 5934 5935 5935 5936 5937
5888 5888 5890 5892 5893 5892 5890 5891 5893 5894 5896 5896 5896 5898 5899 5901 5903 5904 5905 5906 5907 5908 5908 5908 5909 5909 5909 5909 5910 5911 5912 5913 5914 5915 5915 5916 5917 5918 5918 5919 5920 5921 5921 5921 5921 5922 5922 5923 5923 5924 5924 5923 5923 5924 5923 5923 5922 5922 5922 5922 5923 5923 5924 5925 5925 5926 5926 5927 5927 5928 5928 5928 5929 5929 5930 5930 5930 5930 5930 5930 5930 5930 5929 5930 5930 5931 5931 5932 5932 5933 5933 5934 5935 5936 5937 5937 5938
5888 5888 5890 5892 5894 5893 5890 5891 5892 5893 5895 5896 5895 5897 5899 5901 5902 5904 5905 5907 5907 5908 5908 5909 5909 5909 5909 5910 5911 5912 5913 5914 5914 5915 5916 5917 5918 5918 5919 5920 5921 5922 5922 5922 5922 5923 5923 5923 5924 5925 5925 5925 5925 5925 5925 5925 5924 5924 5924 5924 5924 5925 5925 5926 5927 5928 5928 5928 5928 5929 5929 5930 5930 5930 5931 5931 5932 5932 5932 5932 5932 5931 5931 5931 5932 5932 5933 5934 5934 5934 5935 5935 5937 5938 5938 5939 5939
5887 5888 5889 5891 5893 5893 5891 5890 5891 5893 5894 5895 5895 5896 5899 5901 5902 5903 5904 5906 5908 5908 5908 5909 5910 5910 5910 5911 5912 5913 5914 5915 5916 5916 5917 5918 5919 5919 5920 5921 5921 5922 5923 5923 5923 5923 5923 5924 5925 5925 5926 5926 5926 5926 5926 5926 5926 5926 5926 5926 5926 5927 5927 5928 5928 5929 5929 5930 5930 5930 5931 5931 5931 5932 5932 5933 5933 5933 5933 5934 5933 5933 5933 5933 5933 5934 5934 5935 5935 5936 5936 5937 5938 5939 5939 5940 5941
5885 5887 5888 5889 5891 5892 5891 5890 5890 5892 5894 5895 5895 5897 5899 5900 5901 5903 5904 5905 5907 5908 5908 5909 5910 5910 5911 5912 5913 5914 5915 5915 5916 5917 5917 5918 5919 5919 5920 5921 5922 5922 5923 5924 5924 5924 5924 5924 5925 5926 5927 5927 5927 5927 5927 5927 5927 5927 5928 5928 5928 5928 5929 5929 5930 5931 5931 5931 5932 5932 5932 5933 5933 5934 5934 5934 5934 5934 5935 5935 5935 5935 5934 5934 5935 5936 5936 5936 5936 5936 5937 5938 5939 5940 5940 5941 5942
5885 5886 5887 5887 5889 5889 5890 5890 5890 5892 5893 5894 5895 5897 5899 5899 5900 5902 5904 5905 5906 5908 5909 5910 5911 5911 5911 5912 5913 5914 5915 5915 5917 5917 5917 5919 5919 5919 5920 5922 5922 5923 5924 5925 5925 5925 5925 5925 5926 5926 5928 5928 5929 5929 5929 5929 5929 5929 5929 5929 5930 5930 5931 5931 5932 5932 5933 5933 5933 5934 5934 5934 5935 5935 5936 5935 5936 5936 5936 5937 5937 5936 5936 5936 5937 5937 5938 5938 5938 5938 5939 5940 5940 5941 5942 5943 5944
5883 5884 5885 5886 5887 5887 5888 5889 5891 5892 5893 5894 5896 5898 5898 5898 5899 5901 5903 5904 5905 5907 5908 5909 5910 5911 5912 5912 5913 5914 5915 5916 5917 5917 5918 5919 5919 5919 5921 5922 5923 5923 5924 5925 5926 5926 5927 5927 5927 5927 5928 5929 5930 5930 5930 5930 5930 5930 5930 5931 5931 5932 5932 5933 5933 5934 5934 5935 5935 5936 5936 5936 5937 5937 5937 5938 5938 5938 5938 5938 5939 5938 5938 5938 5939 5939 5940 5940 5940 5940 5941 5942 5942 5943 5944 5945 5945
5879 5881 5883 5884 5884 5885 5886 5889 5890 5892 5893 5893 5895 5897 5897 5897 5898 5899 5900 5901 5903 5906 5907 5908 5910 5911 5912 5912 5913 5914 5915 5916 5917 5917 5918 5919 5919 5920 5921 5922 5923 5923 5924 5925 5926 5927 5928 5928 5928 5928 5929 5930 5931 5931 5932 5932 5932 5931 5932 5932 5933 5933 5934 5935 5935 5936 5936 5936 5937 5937 5938 5938 5939 5939 5940 5940 5940 5940 5940 5940 5940 5940 5940 5941 5941 5942 5942 5942 5942 5942 5943 5943 5944 5945 5946 5946 5947
5876 5879 5881 5882 5883 5885 5886 5887 5889 5890 5891 5892 5893 5895 5895 5896 5897 5898 5899 5901 5902 5905 5907 5907 5909 5911 5911 5911 5912 5914 5914 5915 5916 5917 5918 5919 5919 5920 5921 5922 5923 5923 5924 5926 5927 5928 5929 5930 5930 5930 5930 5931 5932 5932 5933 5933 5933 5933 5933 5933 5934 5935 5935 5936 5937 5937 5938 5938 5938 5939 5939 5940 5940 5941 5941 5942 5942 5942 5943 5942 5942 5942 5943 5943 5943 5943 5944 5944 5944 5944 5945 5945 5946 5947 5947 5948 5949
5874 5877 5879 5881 5883 5884 5884 5885 5886 5888 5889 5889 5890 5892 5895 5896 5898 5899 5900 5902 5903 5904 5906 5906 5908 5910 5910 5911 5912 5913 5914 5915 5916 5917 5918 5919 5919 5920 5921 5922 5922 5923 5924 5926 5927 5928 5929 5931 5931 5931 5931 5932 5932 5933 5933 5933 5934 5934 5934 5934 5934 5935 5936 5937 5938 5939 5939 5939 5939 5940 5941 5941 5942 5942 5943 5944 5944 5945 5945 5945 5944 5945 5945 5945 5945 5945 5946 5946 5946 5946 5947 5948 5948 5949 5950 5950 5951
5871 5874 5877 5880 5881 5882 5882 5884 5885 5887 5888 5889 5889 5893 5896 5896 5897 5897 5898 5900 5901 5902 5904 5905 5906 5909 5910 5910 5912 5913 5914 5915 5916 5917 5918 5918 5919 5920 5921 5922 5922 5923 5925 5926 5927 5928 5929 5931 5932 5933 5933 5933 5933 5934 5934 5934 5934 5935 5935 5935 5936 5936 5937 5938 5939 5940 5940 5940 5941 5942 5942 5943 5943 5944 5944 5945 5946 5946 5947 5946 5946 5947 5947 5947 5947 5947 5948 5948 5948 5948 5949 5950 5951 5951 5952 5953 5953
5868 5872 5876 5878 5879 5881 5883 5884 5884 5886 5888 5889 5891 5893 5895 5895 5896 5896 5898 5900 5901 5902 5903 5904 5906 5908 5909 5910 5912 5913 5914 5915 5916 5917 5918 5919 5919 5920 5921 5922 5922 5923 5925 5926 5928 5928 5929 5931 5932 5933 5934 5934 5934 5934 5935 5935 5935 5935 5936 5936 5937 5938 5938 5939 5939 5940 5941 5941 5942 5943 5944 5944 5945 5945 5946 5946 5947 5947 5947 5948 5948 5949 5949 5949 5949 5949 5950 5950 5950 5950 5951 5952 5952 5953 5954 5955 5956
5866 5870 5874 5877 5879 5881 5881 5881 5882 5885 5886 5888 5890 5892 5893 5893 5894 5895 5897 5898 5900 5902 5902 5903 5904 5907 5909 5910 5911 5913 5914 5914 5915 5916 5917 5918 5919 5920 5921 5922 5922 5923 5925 5926 5928 5928 5929 5930 5932 5934 5934 5935 5935 5935 5935 5936 5936 5936 5937 5937 5938 5938 5939 5940 5940 5941 5941 5942 5943 5944 5945 5945 5946 5947 5947 5947 5947 5948 5948 5949 5949 5950 5950 5951 5951 5951 5951 5952 5952 5952 5953 5954 5954 5955 5956 5956 5957
5864 5868 5872 5876 5878 5878 5878 5878 5880 5883 5885 5888 5890 5891 5891 5892 5892 5894 5896 5896 5898 5901 5902 5903 5903 5905 5908 5909 5910 5912 5913 5914 5914 5915 5916 5917 5919 5920 5921 5922 5923 5924 5925 5926 5927 5928 5929 5930 5932 5933 5935 5935 5936 5935 5936 5936 5936 5937 5937 5938 5938 5939 5939 5940 5941 5941 5942 5943 5944 5945 5946 5946 5947 5948 5948 5948 5949 5949 5949 5950 5951 5951 5951 5952 5952 5953 5953 5954 5954 5955 5955 5956 5956 5957 5957 5958 5959
5863 5866 5871 5874 5876 5876 5876 5877 5880 5883 5885 5886 5888 5889 5890 5891 5892 5893 5895 5895 5897 5899 5901 5902 5903 5904 5907 5908 5910 5911 5912 5913 5914 5915 5916 5917 5919 5920 5921 5923 5924 5925 5925 5926 5927 5928 5929 5930 5931 5933 5934 5936 5936 5936 5936 5937 5937 5938 5938 5939 5939 5939 5939 5940 5941 5942 5943 5945 5946 5946 5947 5948 5948 5949 5949 5950 5950 5950 5950 5951 5951 5952 5952 5953 5954 5954 5955 5956 5956 5956 5957 5957 5958 5958 5959 5959 5960
5863 5867 5870 5872 5873 5873 5875 5877 5879 5882 5883 5883 5885 5887 5889 5890 5891 5892 5893 5894 5896 5898 5900 5901 5903 5904 5906 5907 5909 5910 5911 5912 5914 5915 5916 5917 5918 5920 5921 5923 5924 5925 5925 5926 5927 5928 5929 5930 5931 5932 5934 5935 5936 5937 5937 5937 5938 5938 5939 5939 5939 5939 5940 5941 5942 5943 5944 5945 5946 5947 5948 5949 5949 5949 5950 5951 5951 5951 5951 5952 5952 5953 5953 5954 5955 5955 5956 5957 5958 5958 5958 5959 5959 5960 5960 5961 5962
5864 5866 5867 5869 5870 5871 5874 5875 5877 5878 5879 5881 5884 5886 5888 5890 5891 5892 5893 5894 5895 5897 5899 5901 5902 5903 5905 5907 5908 5910 5910 5911 5913 5914 5915 5916 5917 5919 5921 5922 5924 5925 5925 5926 5927 5928 5929 5930 5931 5932 5933 5935 5936 5937 5938 5938 5938 5939 5939 5939 5940 5940 5940 5941 5942 5943 5944 5945 5946 5948 5949 5950 5950 5950 5951 5951 5952 5952 5952 5953 5953 5954 5954 5955 5956 5956 5957 5958 5959 5959 5960 5960 5961 5961 5962 5963 5963
5863 5863 5864 5865 5866 5867 5870 5872 5874 5875 5876 5880 5883 5885 5887 5889 5890 5892 5892 5893 5895 5896 5898 5900 5901 5903 5905 5906 5907 5909 5910 5910 5912 5914 5915 5916 5917 5918 5920 5922 5923 5924 5925 5926 5927 5928 5929 5930 5931 5932 5933 5934 5936 5937 5938 5939 5939 5939 5940 5940 5940 5941 5941 5941 5942 5943 5944 5945 5946 5947 5948 5950 5951 5951 5952 5952 5953 5953 5954 5954 5954 5955 5955 5956 5956 5957 5958 5958 5959 5960 5961 5961 5962 5962 5963 5964 5964
5859 5860 5860 5861 5862 5864 5866 5868 5870 5871 5873 5878 5882 5883 5885 5888 5889 5890 5891 5892 5894 5895 5897 5899 5901 5902 5904 5905 5906 5908 5909 5910 5911 5913 5914 5915 5916 5918 5919 5921 5922 5924 5925 5927 5928 5928 5929 5930 5931 5932 5933 5934 5936 5937 5938 5939 5940 5940 5940 5941 5941 5941 5942 5942 5942 5943 5944 5945 5946 5947 5948 5949 5950 5951 5952 5953 5954 5954 5955 5955 5956 5956 5956 5957 5957 5957 5958 5959 5960 5961 5961 5962 5963 5963 5964 5964 5965
5855 5856 5857 5858 5859 5862 5864 5866 5867 5867 5871 5877 5880 5880 5882 5886 5888 5889 5890 5891 5892 5893 5895 5897 5899 5901 5902 5904 5905 5907 5908 5909 5910 5912 5914 5915 5917 5918 5919 5920 5922 5923 5925 5926 5927 5928 5929 5930 5931 5932 5933 5934 5935 5936 5937 5939 5940 5940 5941 5941 5941 5942 5942 5943 5943 5944 5945 5946 5947 5947 5948 5949 5950 5951 5952 5953 5954 5955 5956 5956 5957 5957 5957 5958 5958 5958 5959 5959 5960 5961 5962 5963 5963 5964 5964 5964 5965
5850 5852 5853 5855 5856 5857 5860 5863 5864 5867 5872 5875 5878 5879 5880 5883 5885 5886 5888 5889 5890 5891 5892 5894 5896 5898 5901 5903 5904 5905 5906 5907 5908 5910 5913 5914 5916 5917 5918 5920 5921 5922 5924 5925 5926 5927 5928 5929 5931 5932 5933 5934 5934 5935 5936 5938 5939 5940 5941 5941 5942 5942 5943 5943 5944 5945 5945 5946 5947 5948 5949 5950 5950 5951 5952 5953 5954 5955 5956 5957 5957 5958 5958 5959 5959 5959 5960 5960 5961 5962 5962 5963 5964 5964 5964 5964 5965
5846 5848 5850 5852 5853 5853 5857 5860 5862 5866 5870 5872 5875 5876 5878 5881 5882 5884 5886 5887 5888 5889 5891 5892 5894 5895 5898 5900 5901 5902 5904 5905 5907 5909 5911 5913 5914 5916 5917 5919 5920 5921 5922 5924 5925 5926 5927 5929 5930 5931 5932 5933 5934 5935 5936 5937 5938 5939 5940 5941 5942 5943 5943 5944 5944 5945 5946 5946 5947 5948 5949 5950 5951 5951 5952 5953 5954 5955 5956 5957 5958 5958 5959 5959 5960 5960 5960 5961 5961 5962 5962 5963 5963 5964 5964 5964 5965
5844 5846 5848 5850 5851 5852 5855 5858 5861 5865 5869 5870 5871 5872 5874 5878 5880 5882 5885 5886 5886 5888 5890 5892 5893 5894 5896 5897 5899 5900 5902 5904 5905 5906 5908 5911 5912 5914 5916 5917 5918 5920 5921 5922 5923 5925 5926 5927 5928 5930 5931 5932 5933 5934 5935 5936 5937 5938 5939 5940 5941 5942 5943 5944 5944 5945 5945 5946 5947 5948 5949 5950 5951 5951 5952 5953 5954 5955 5955 5956 5957 5958 5958 5959 5960 5960 5961 5961 5961 5962 5962 5962 5963 5963 5964 5964 5964
5842 5844 5846 5848 5850 5851 5853 5856 5860 5864 5867 5868 5869 5869 5873 5877 5879 5881 5883 5884 5885 5887 5889 5892 5894 5896 5897 5898 5898 5899 5900 5901 5903 5905 5907 5909 5911 5912 5914 5916 5917 5918 5920 5921 5922 5924 5925 5926 5927 5928 5930 5931 5932 5933 5934 5935 5937 5938 5939 5940 5941 5941 5942 5943 5943 5944 5945 5946 5947 5948 5948 5949 5950 5951 5952 5953 5953 5954 5955 5956 5957 5957 5958 5959 5959 5960 5961 5961 5961 5961 5962 5962 5963 5963 5963 5964 5964
5839 5842 5844 5846 5848 5849 5851 5853 5857 5860 5862 5864 5866 5868 5873 5876 5877 5879 5881 5881 5883 5885 5888 5891 5893 5895 5897 5899 5899 5900 5901 5901 5903 5905 5906 5907 5908 5910 5912 5914 5916 5918 5919 5920 5921 5922 5923 5925 5926 5928 5929 5930 5932 5933 5934 5935 5936 5937 5938 5939 5940 5941 5941 5942 5942 5943 5944 5945 5946 5947 5948 5949 5950 5951 5952 5953 5953 5954 5955 5955 5956 5957 5958 5958 5959 5960 5960 5960 5961 5961 5961 5962 5962 5963 5963 5963 5964
5837 5840 5841 5844 5846 5848 5849 5850 5853 5856 5858 5861 5864 5867 5871 5873 5875 5877 5879 5880 5881 5883 5887 5890 5892 5894 5894 5896 5897 5900 5902 5902 5902 5901 5902 5904 5907 5908 5910 5912 5914 5916 5917 5918 5919 5920 5922 5924 5925 5926 5928 5929 5930 5931 5932 5933 5934 5936 5937 5938 5939 5940 5941 5942 5942 5943 5944 5944 5945 5946 5948 5949 5949 5950 5952 5953 5953 5954 5955 5955 5956 5957 5957 5958 5959 5959 5960 5960 5960 5961 5961 5961 5962 5962 5963 5963 5964
5835 5838 5840 5842 5844 5846 5847 5848 5849 5852 5855 5858 5861 5865 5868 5871 5873 5876 5878 5879 5881 5883 5885 5888 5890 5891 5892 5893 5895 5898 5900 5901 5902 5902 5902 5904 5906 5907 5908 5910 5912 5914 5916 5917 5918 5920 5921 5922 5923 5924 5925 5927 5928 5930 5931 5932 5933 5934 5935 5937 5938 5939 5940 5941 5942 5943 5943 5944 5945 5946 5947 5948 5949 5950 5951 5952 5953 5954 5955 5956 5956 5957 5958 5958 5959 5959 5959 5960 5960 5960 5961 5961 5962 5962 5962 5963 5963
5832 5834 5837 5840 5842 5844 5845 5846 5848 5850 5853 5856 5859 5862 5865 5868 5871 5874 5876 5877 5879 5881 5884 5886 5888 5889 5890 5891 5894 5896 5898 5900 5903 5903 5902 5902 5903 5905 5907 5909 5911 5913 5915 5916 5917 5919 5920 5921 5921 5922 5924 5926 5928 5929 5931 5931 5932 5933 5934 5935 5937 5938 5939 5940 5941 5942 5943 5944 5945 5946 5946 5947 5948 5949 5950 5951 5952 5954 5955 5955 5956 5957 5958 5959 5959 5960 5960 5960 5960 5961 5961 5961 5962 5962 5962 5963 5963
5829 5831 5834 5837 5840 5841 5843 5844 5845 5847 5850 5854 5856 5859 5862 5866 5869 5871 5874 5876 5878 5879 5881 5883 5884 5886 5887 5889 5892 5894 5895 5896 5899 5901 5901 5901 5901 5904 5906 5908 5909 5910 5912 5913 5915 5917 5919 5920 5920 5921 5923 5925 5927 5929 5931 5932 5932 5933 5933 5934 5936 5937 5938 5939 5940 5941 5943 5944 5945 5946 5946 5947 5948 5949 5950 5950 5951 5953 5954 5954 5955 5957 5958 5959 5960 5960 5961 5961 5961 5961 5962 5962 5962 5962 5963 5963 5964
5826 5829 5831 5834 5836 5839 5841 5842 5843 5845 5848 5851 5854 5857 5860 5863 5866 5869 5872 5874 5876 5878 5880 5881 5882 5883 5885 5887 5890 5892 5893 5894 5895 5897 5898 5899 5900 5902 5905 5906 5906 5907 5909 5911 5913 5915 5916 5917 5918 5919 5921 5923 5925 5927 5929 5930 5931 5932 5933 5934 5935 5937 5938 5939 5940 5941 5942 5943 5944 5945 5946 5947 5948 5948 5949 5950 5951 5952 5953 5953 5954 5955 5957 5958 5959 5960 5961 5961 5962 5962 5962 5963 5963 5963 5963 5964 5964